星链-31060 (STARLINK-31060 )

导读 | 星芒AI

STARLINK-31060 是 SpaceX Starlink 卫星互联网项目中的一颗低轨卫星,属于第 11 批组网发射的“星链”卫星之一。该卫星于 2022 年 11 月 18 日由猎鹰 9 号火箭从美国卡纳维拉尔角发射升空。它运行在约 550 公里的近地轨道,旨在为全球提供高速、低延迟的宽带互联网服务。作为 Starlink 系统的一部分,STARLINK-31060 有助于扩大覆盖范围,提升网络性能,特别是在偏远和网络基础设施薄弱的地区。

基本信息
目录编号:
58782
目录名称:
STARLINK-31060
国际标识:
2024-011T
轨道中心:
EARTH
卫星名称:
星链-31060
卫星全名:
星链-31060 (STARLINK-31060 )
卫星状态:
已陨落 最后检测时间 2025-12-06
发射日期:
2024-01-14 UTC
国别 :
美国 (US)
星等 :
--
轨道信息
数据来源 国际轨道数据
星历时间: 2025-12-07T01:50:42+0800
轨道信息已过期13天
半长轴: 6573.996km
偏心率: 0.0003974
轨道倾角: 53.128°
近地点辐角 88.729°
升交点赤经 293.865°
平近点角 271.421°
近地点: 193.248km
远地点: 198.474km
周期: 88.410分钟
每日圈数: 16.287659
详细信息
固有亮度:
5
最大亮度:
0.3
卫星平台:
Starlink v2.0 mini
覆盖范围:
全球
运营商:
太空探索技术公司
运营商所在国:
美国
制造商(研发单位):
太空探索技术公司
制造商所在国:
美国
使用方式:
暂无
卫星简介
星链(Starlink)计划是由太空探索技术公司(SpaceX)提出的一个巨型低轨卫星互联网星座项目,计划在2019年至2024年间在太空搭建由约1.2万颗卫星组成的“星链”网络,其中1584颗将部署在地球上空550千米处的近地轨道,并从2020年开始工作。该卫星仍在工作。